Content
SEND FEEDBACK

Daily
Averages
Monthly
Summary
United Kingdom

LONDON, ENGLAND


Home > Europe > United Kingdom > England
Elevation: 203 feet     Latitude: 51 09N     Longitude: 000 11W

WEATHER
 
SELECT A DAY
Number of Records: 297,050;   Date Range: 7/1/96 - 10/18/14
 
SHARE

PRINT THIS DATA

[ ← Previous Day ]
WEATHER ALMANAC - MAY 25, 2013
[ Next Day → ]
[ °C ]   °F
Weather ElementAverageHighLow
Temperature50.3 °F59 °F (3:50 pm)41 °F (4:50 am)
Dewpoint38.7 °F41 °F (12:50 am)35.6 °F (3:20 pm)
Humidity67.4 %93 % (12:50 am)42 % (4:50 pm)
Barometer30.12 in30.15 in (8:20 am)30.01 in (12:50 am)
Wind Speed9.3 mph13.8 mph (11:20 am)
Wind Gust28.8 mph (11:20 am)
Weather ElementAverage
Visibility5.8 mi
Wind DirectionSSW (200 °)

Weather ElementTotal
Precipitation---
Heating Degree Days15 (Base 65)
Averaged from 47 records on May 25, 2013
WEATHER CONDITIONS BREAKOUT
WIND DIRECTION BREAKOUT
WEATHER BY HOUR - MAY 25, 2013
[ °C ]   °F
Local TimeTemperatureDewpointHumidityBarometerVisibilityWind DirectionWind SpeedGust SpeedPrecipitationEventsConditions
12:50 AM42.8 °F41.0 °F93 %30.01 in6.2 miNorth (10°)9.2 mphMostly Cloudy
1:20 AM42.8 °F41.0 °F93 %30.04 in5.0 miNE (40°)10.4 mphRainRain Showers
1:50 AM42.8 °F41.0 °F93 %30.04 in6.2 miNE (40°)8.1 mphRainLight Rain Showers
2:20 AM42.8 °F41.0 °F93 %30.04 in4.3 miNE (40°)8.1 mphRainLight Rain
2:50 AM42.8 °F41.0 °F93 %30.06 in6.2 miNorth (360°)6.9 mphMostly Cloudy
3:20 AM42.8 °F41.0 °F93 %30.06 in5.0 miNorth (10°)10.4 mphMostly Cloudy
3:50 AM42.8 °F41.0 °F93 %30.06 in4.3 miNorth (10°)11.5 mphScattered Clouds
4:20 AM42.8 °F41.0 °F93 %30.06 in5.0 miNorth (10°)10.4 mphPartly Cloudy
4:50 AM41.0 °F39.2 °F93 %30.06 in4.3 miNorth (10°)8.1 mphPartly Cloudy
5:20 AM41.0 °F39.2 °F93 %30.09 in4.3 miNorth (10°)6.9 mphPartly Cloudy
5:50 AM42.8 °F41.0 °F93 %30.09 in5.6 miNorth (10°)10.4 mphScattered Clouds
6:20 AM42.8 °F41.0 °F93 %30.09 in5.6 miNorth (10°)10.4 mphScattered Clouds
6:50 AM42.8 °F41.0 °F93 %30.12 in6.2 miNorth (360°)11.5 mphMostly Cloudy
7:20 AM44.6 °F41.0 °F87 %30.12 in6.2 miNorth (10°)12.7 mphScattered Clouds
7:50 AM46.4 °F41.0 °F81 %30.12 in6.2 miNorth (360°)11.5 mphPartly Cloudy
8:20 AM46.4 °F41.0 °F81 %30.15 in6.2 miNNE (20°)11.5 mphScattered Clouds
8:50 AM48.2 °F41.0 °F76 %30.15 in6.2 miNNE (20°)10.4 mphPartly Cloudy
9:20 AM50.0 °F41.0 °F71 %30.15 in6.2 miNorth (350°)11.5 mphScattered Clouds
9:50 AM51.8 °F41.0 °F67 %30.15 in6.2 miNNE (20°)12.7 mphPartly Cloudy
10:20 AM51.8 °F39.2 °F62 %30.15 in6.2 miNorth (360°)11.5 mphScattered Clouds
10:50 AM53.6 °F41.0 °F62 %30.15 in6.2 miNorth (350°)11.5 mphScattered Clouds
11:20 AM53.6 °F39.2 °F58 %30.15 in6.2 miNNW (340°)13.8 mph28.8 mphScattered Clouds
11:50 AM53.6 °F39.2 °F58 %30.15 in6.2 miNorth (350°)11.5 mphScattered Clouds
12:20 PM53.6 °F39.2 °F58 %30.15 in6.2 miNNW (340°)9.2 mphScattered Clouds
12:50 PM55.4 °F39.2 °F54 %30.15 in6.2 miNNW (330°)11.5 mphScattered Clouds
1:20 PM55.4 °F39.2 °F54 %30.15 in6.2 miNW (320°)10.4 mphScattered Clouds
1:50 PM57.2 °F39.2 °F51 %30.15 in6.2 miNNE (20°)9.2 mphScattered Clouds
2:20 PM57.2 °F37.4 °F48 %30.15 in6.2 miNNW (330°)13.8 mphScattered Clouds
2:50 PM57.2 °F37.4 °F48 %30.15 in6.2 miNNW (340°)10.4 mphPartly Cloudy
3:20 PM57.2 °F35.6 °F44 %30.15 inNorth (350°)10.4 mphClear
3:50 PM59.0 °F37.4 °F45 %30.15 inVariable11.5 mphClear
4:20 PM59.0 °F37.4 °F45 %30.15 inNNW (330°)11.5 mphClear
4:50 PM59.0 °F35.6 °F42 %30.15 inNNW (340°)10.4 mphClear
5:20 PM59.0 °F37.4 °F45 %30.12 inNNW (330°)11.5 mphClear
5:50 PM57.2 °F35.6 °F44 %30.12 inNorth (360°)10.4 mphClear
6:20 PM57.2 °F37.4 °F48 %30.12 inNNW (340°)9.2 mphClear
6:50 PM57.2 °F35.6 °F44 %30.12 inNorth (10°)9.2 mphClear
7:20 PM57.2 °F35.6 °F44 %30.12 inNorth (360°)6.9 mphClear
7:50 PM57.2 °F35.6 °F44 %30.12 inNW (320°)9.2 mphClear
8:20 PM55.4 °F35.6 °F47 %30.15 inNNW (330°)8.1 mphClear
8:50 PM53.6 °F35.6 °F51 %30.15 inNW (320°)5.8 mphClear
9:20 PM53.6 °F35.6 °F51 %30.15 inNW (310°)4.6 mphClear
9:50 PM48.2 °F35.6 °F62 %30.15 inWest (280°)4.6 mphClear
10:20 PM48.2 °F37.4 °F66 %30.15 inSW (230°)3.5 mphClear
10:50 PM46.4 °F37.4 °F71 %30.15 inSW (220°)3.5 mphClear
11:20 PM46.4 °F37.4 °F71 %30.15 inCalmClear
11:50 PM42.8 °F37.4 °F81 %30.15 inSouth (190°)2.3 mphClear
Hourly data recorded from EGKK, located miles away from London, England







STORIES FROM OUR PARTNERS